Weather History for Lee's Summit, MO

Change the Weather History Date:

Friday, June 14, 2013

  Actual Average (KMKC) Record (KMKC)
Temperature  
Mean Temperature 76 °F -  
Max Temperature 87 °F 80 °F 93 °F (2011)
Min Temperature 66 °F 62 °F 55 °F (2002)
Cooling Degree Days 12    
Growing Degree Days 26 (Base 50)    
Moisture  
Dew Point 65 °F    
Average Humidity 67    
Maximum Humidity 87    
Minimum Humidity 50    
Precipitation  
Precipitation 0.00 in - - ()
Sea Level Pressure  
Sea Level Pressure 29.97 in    
Wind  
Wind Speed 7 mph (SE)    
Max Wind Speed 14 mph    
Max Gust Speed 20 mph    
Visibility 10 miles    
Events      
Averages and records for this station are not official NWS values.
T = Trace of Precipitation, MM = Missing Value Source: NWS Daily Summary

Daily Weather History Graph

Daily Weather History Graph

Search for Another Location

Airport:

Trip Planner

Search our weather history database for the weather conditions in past years. The results will help you decide how hot, cold, wet, or windy it might be!

Date:

Astronomy

Jun. 14, 2013 Rise Set
Actual Time 5:51 AM CDT 8:44 PM CDT
Civil Twilight 5:19 AM CDT 9:16 PM CDT
Nautical Twilight 4:38 AM CDT 9:56 PM CDT
Astronomical Twilight 3:52 AM CDT 10:43 PM CDT
Moon 11:24 AM CDT (6/14) No Moon Set
Length of Visible Light 15h 57m
Length of Day
14h 53m
Waxing Crescent, 30% of the Moon is Illuminated
Jun 14
Waxing Crescent
Jun 16
First Quarter
Jun 23
Full
Jun 29
Last Quarter
Jul 8
New

Hourly Weather History & Observations

Time (CDT) Temp. Heat Index Dew Point Humidity Pressure Visibility Wind Dir Wind Speed Gust Speed Precip Events Conditions
12:53 AM 70.0 °F - 61.0 °F 73% 30.00 in 10.0 mi ENE 3.5 mph - N/A   Clear
1:53 AM 68.0 °F - 61.0 °F 78% 30.01 in 10.0 mi East 4.6 mph - N/A   Clear
2:53 AM 68.0 °F - 61.0 °F 78% 30.00 in 10.0 mi SE 3.5 mph - N/A   Clear
3:53 AM 66.9 °F - 62.1 °F 84% 30.01 in 10.0 mi Calm Calm - N/A   Clear
4:53 AM 66.0 °F - 62.1 °F 87% 30.00 in 10.0 mi ESE 5.8 mph - N/A   Clear
5:53 AM 66.9 °F - 63.0 °F 87% 29.98 in 10.0 mi SSE 4.6 mph - N/A   Partly Cloudy
6:53 AM 68.0 °F - 64.0 °F 87% 30.03 in 10.0 mi ESE 3.5 mph - N/A   Mostly Cloudy
7:53 AM 71.1 °F - 64.0 °F 78% 30.02 in 10.0 mi SE 5.8 mph - N/A   Clear
8:53 AM 75.0 °F - 64.0 °F 69% 30.02 in 10.0 mi SE 9.2 mph - N/A   Scattered Clouds
9:53 AM 77.0 °F - 63.0 °F 62% 30.00 in 10.0 mi South 12.7 mph 17.3 mph N/A   Scattered Clouds
10:53 AM 79.0 °F - 60.1 °F 52% 29.99 in 10.0 mi South 13.8 mph 19.6 mph N/A   Clear
11:53 AM 81.0 °F 81.7 °F 61.0 °F 50% 29.99 in 10.0 mi SSE 10.4 mph - N/A   Clear
12:53 PM 82.9 °F 84.4 °F 64.0 °F 53% 29.98 in 10.0 mi SE 9.2 mph 16.1 mph N/A   Clear
1:53 PM 84.9 °F 87.1 °F 66.0 °F 53% 29.97 in 10.0 mi SE 8.1 mph - N/A   Clear
2:53 PM 87.1 °F 90.6 °F 68.0 °F 53% 29.94 in 10.0 mi ESE 12.7 mph 17.3 mph N/A   Clear
3:53 PM 86.0 °F 90.1 °F 69.1 °F 57% 29.93 in 10.0 mi SE 10.4 mph - N/A   Partly Cloudy
4:53 PM 84.9 °F 88.8 °F 69.1 °F 59% 29.91 in 10.0 mi SE 12.7 mph 17.3 mph N/A   Mostly Cloudy
5:53 PM 86.0 °F 90.7 °F 70.0 °F 59% 29.89 in 10.0 mi SE 9.2 mph 17.3 mph N/A   Partly Cloudy
6:53 PM 84.9 °F 89.4 °F 70.0 °F 61% 29.89 in 10.0 mi SE 11.5 mph 17.3 mph N/A   Clear
7:53 PM 82.0 °F 84.9 °F 68.0 °F 62% 29.90 in 10.0 mi SE 11.5 mph 19.6 mph N/A   Clear
8:53 PM 80.1 °F 82.7 °F 68.0 °F 67% 29.91 in 10.0 mi ESE 9.2 mph - N/A   Partly Cloudy
9:53 PM 79.0 °F - 66.0 °F 64% 29.93 in 10.0 mi SE 9.2 mph - N/A   Clear
10:53 PM 78.1 °F - 66.0 °F 66% 29.95 in 10.0 mi SE 10.4 mph - N/A   Partly Cloudy
11:53 PM 77.0 °F - 66.0 °F 69% 29.92 in 10.0 mi SE 9.2 mph 18.4 mph N/A   Clear